Location: Miles
(41.4492°N, 81.6087°W)
Time: 23:10:13
(UTC+00:00)

Courier 1B Rocket - Pass Details

Date: 18 September 2024
Orbit: 920 x 1201 km, 28.2° (Epoch: 09 October)

Event Time Altitude Azimuth Distance (km) Brightness Sun altitude
Rises 20:12:52 0° 231° (SW) 3,587 9.0 34.3°
Reaches altitude 10° 20:16:01 10° 217° (SW) 2,675 8.5 33.8°
Maximum altitude 20:20:50 22° 168° (SSE) 1,990 7.1 33.0°
Drops below altitude 10° 20:25:53 10° 120° (ESE) 2,812 7.2 32.2°
Sets 20:29:17 0° 106° (ESE) 3,820 7.7 31.7°
